Showing default

FACSAT-2, 56205

Orbit data source: Space-Track

FACSAT-2, 56205 is a payload satellite owned by EMAVI (CO) in SSO that was launched on Sat, 15 Apr 2023 UTC via an FALCON 9 launch vehicle from the Air Force Western Test Range (AFWTR). Payload-class satellites include a variety of spacecraft equipped with specific instruments for various scientific and technological missions. These include communications satellites like Starlink; space stations such as the ISS; scientific satellites like the Hubble; Earth observation satellites from companies like Planet Labs, Umbra, and HawkEye 360; GPS; miniature CubeSats for education and research; and military/defense satellites.

Loading next visibility...
Identifier
56205, 2023-054AD
Orbit
SSO
Last TLE update
9 hours ago
Origin
Manufacturer
GOMSpace
Mission
Operational Defense Imaging
Bus & Motor
CUBESAT 6U, Unknown motor
Mass
10 kg wet, ~10 kg dry
Launch date (UTC)
2023-04-15 (2 years ago)
Launch vehicle
FALCON 9
Launch site
Air Force Western Test Range (AFWTR)
Object type
Payload
Rocket body
Debris
Shape & HBR
Box + 2 Pan, 2.5 m
Radar Cross Section
0.211 m², Medium (>0.1 m² and < 1m²)

Expand to show TLE details & history

TLE from 9 hours ago
0 FACSAT-2
1 56205U 23054AD  25191.76193917  .00038055  00000-0  30167-3 0  9994
2 56205  97.3260 103.1097 0007035 145.2456 214.9267 15.71185807126339
Epoch: 2025-07-10T18:17Z
TLE epoch observation values (Epoch: 2025-07-10T18:17:11.544Z)
Latitude
-0.00009°
Longitude
-100.11196°
Altitude
362.555 km
Speed
7.69 km/s
True Right ascension
06h 52m 26s
True Declination
0° 00' 00"
Sunlit
Object was in daylight at epoch
Visualization orbit readout
Latitude
-82.38186°
Longitude
7.36047°
Altitude
386.442 km
Speed
7.675 km/s
Apparent Right ascension
03h 37m 33s
Apparent Declination
-69° 18' 24"
Sunlit
Object is in full shadow
Visualization observer readout
Local Sidereal Time
15:20:33
Azimuth
183.052° SSW
Elevation
-60.522°
Doppler factor
1
Orbital elements
Apogee altitude
357.136 km
Perigee altitude
347.666 km
Semi-major axis
6,730.538 km
Eccentricity
0.0007
Inclination
97.326°
RAAN
103.1097°
Arg. of periapsis
145.2456°
True anomaly
Unknown
Mean anomaly
214.9267°
Eccentric anomaly
Unknown
Mean motion
3.93069 °/min
Orbital period
91.59 mins
BSTAR
0.00030167
Loading maneuver chart data...
Loading SW <> Apogee altitude chart data...
Loading historical data...
Loading historical data...
Loading historical data...
Loading historical data...
Loading historical data...
Loading historical data...
Loading historical data...

FACSAT-2 Visibility forecast

Observer location: undefined°, undefined°

Span
Click to sort rows by Start time (UTC) header in descending order
Start Az.
Max El. time (UTC)
Max El. Az.
Max El.
End time (UTC)
End Az.
5 mins2025-07-11 07:03:53.783Z7.798° NNE2025-07-11 07:05:53.783Z349.331° N39.325°2025-07-11 07:08:53.783Z198.055° SSW
|